Location: Aalen
(48.8330°N, 10.1000°E)
Time: 06:14:14
(UTC+02:00)

Transit 4A - All Passes

Search period start: 01 August 2021 00:00
Search period end: 11 August 2021 00:00
Orbit: 872 x 972 km, 66.8° (Epoch: 31 July)

Date Brightness Start Highest point End Pass type
(mag) Time Alt. Az. Time Alt. Az. Time Alt. Az.
01 Aug - 00:33:31 10° S 00:38:43 33° ESE 00:43:52 10° NE visible
01 Aug - 02:19:06 10° SW 02:24:51 53° NW 02:30:34 10° NNE visible
01 Aug - 04:08:32 10° WNW 04:12:32 19° NNW 04:16:33 10° NNE visible
01 Aug - 05:58:39 10° NNW 06:01:23 13° N 06:04:07 10° NNE daylight
01 Aug - 07:45:23 10° NNW 07:50:01 24° NNE 07:54:41 10° E daylight
01 Aug - 09:31:23 10° NW 09:37:16 79° NE 09:43:15 10° SE daylight
01 Aug - 11:18:44 10° WNW 11:22:59 21° WSW 11:27:18 10° SSW daylight
02 Aug - 00:42:15 10° S 00:47:51 47° ESE 00:53:25 10° NE visible
02 Aug - 02:28:48 10° WSW 02:34:19 40° NW 02:39:48 10° NNE visible
02 Aug - 04:18:47 10° NW 04:22:19 16° NNW 04:25:52 10° NNE visible
02 Aug - 06:08:16 10° NNW 06:11:16 14° N 06:14:15 10° NE daylight
02 Aug - 07:54:35 10° NNW 07:59:39 29° NE 08:04:46 10° E daylight
02 Aug - 09:40:42 10° NW 09:46:34 76° WSW 09:52:31 10° SSE daylight
02 Aug - 11:29:01 10° WNW 11:31:58 14° WSW 11:34:56 10° SW daylight
02 Aug - 23:09:45 10° ESE 23:11:48 12° ESE 23:13:50 10° E visible
03 Aug - 00:51:13 10° SSW 00:57:03 67° ESE 01:02:51 10° NE visible
03 Aug - 02:38:41 10° W 02:43:51 31° NW 02:49:01 10° NNE visible
03 Aug - 04:29:04 10° NW 04:32:09 14° NNW 04:35:16 10° NNE visible
03 Aug - 06:17:42 10° NNW 06:21:06 15° NNE 06:24:30 10° NE daylight
03 Aug - 08:03:48 10° NNW 08:09:13 37° NE 08:14:42 10° ESE daylight
03 Aug - 09:50:06 10° NW 09:55:48 54° WSW 10:01:36 10° SSE daylight
03 Aug - 23:16:54 10° SSE 23:20:44 18° ESE 23:24:33 10° ENE visible
04 Aug - 01:00:25 10° SW 01:06:19 88° NW 01:12:12 10° NE visible
04 Aug - 02:48:41 10° W 02:53:28 25° NNW 02:58:15 10° NNE visible
04 Aug - 04:39:14 10° NW 04:42:02 13° N 04:44:49 10° NNE visible
04 Aug - 06:27:02 10° NNW 06:30:55 18° NNE 06:34:48 10° ENE daylight
04 Aug - 08:13:02 10° NNW 08:18:43 48° NE 08:24:27 10° ESE daylight
04 Aug - 09:59:35 10° NW 10:04:58 38° WSW 10:10:25 10° S daylight
04 Aug - 23:24:58 10° SSE 23:29:45 26° ESE 23:34:31 10° NE visible
05 Aug - 01:09:50 10° SW 01:15:40 65° NW 01:21:29 10° NNE visible
05 Aug - 02:58:50 10° WNW 03:03:09 21° NNW 03:07:28 10° NNE visible
05 Aug - 04:49:14 10° NNW 04:51:54 13° N 04:54:35 10° NNE visible
05 Aug - 06:36:18 10° NNW 06:40:40 21° NNE 06:45:02 10° ENE daylight
05 Aug - 08:22:17 10° NNW 08:28:08 65° NE 08:34:04 10° SE daylight
05 Aug - 10:09:15 10° NW 10:14:03 27° WSW 10:18:55 10° SSW daylight
05 Aug - 23:33:29 10° S 23:38:50 38° ESE 23:44:10 10° NE visible
06 Aug - 01:19:25 10° WSW 01:25:05 48° NW 01:30:44 10° NNE visible
06 Aug - 03:09:04 10° WNW 03:12:54 18° NNW 03:16:45 10° NNE visible
06 Aug - 04:58:59 10° NNW 05:01:47 13° N 05:04:36 10° NE visible
06 Aug - 06:45:32 10° NNW 06:50:20 25° NNE 06:55:11 10° E daylight
06 Aug - 08:31:34 10° NW 08:37:29 88° ENE 08:43:28 10° SE daylight
06 Aug - 10:19:11 10° WNW 10:23:04 18° WSW 10:27:01 10° SSW daylight
06 Aug - 23:42:18 10° SSW 23:48:00 54° ESE 23:53:40 10° NE visible
07 Aug - 01:29:11 10° WSW 01:34:35 37° NW 01:39:58 10° NNE visible
07 Aug - 03:19:20 10° NW 03:22:42 15° NNW 03:26:05 10° NNE visible
07 Aug - 05:08:32 10° NNW 05:11:39 14° NNE 05:14:47 10° NE visible
07 Aug - 06:54:45 10° NNW 06:59:58 32° NE 07:05:12 10° E daylight
07 Aug - 08:40:55 10° NW 08:46:45 68° WSW 08:52:41 10° SSE daylight
07 Aug - 10:29:50 10° W 10:32:02 12° WSW 10:34:14 10° WSW daylight
07 Aug - 22:09:00 10° SE 22:11:51 14° ESE 22:14:42 10° ENE visible
07 Aug - 23:51:22 10° SSW 23:57:14 76° ESE 00:03:03 10° NE visible
08 Aug - 01:39:06 10° W 01:44:09 29° NW 01:49:12 10° NNE visible
08 Aug - 03:29:35 10° NW 03:32:33 14° N 03:35:32 10° NNE visible
08 Aug - 05:17:55 10° NNW 05:21:29 16° NNE 05:25:04 10° NE visible
08 Aug - 07:03:58 10° NNW 07:09:30 41° NE 07:15:05 10° ESE daylight
08 Aug - 08:50:20 10° NW 08:55:57 48° WSW 09:01:40 10° S daylight
08 Aug - 22:16:36 10° SSE 22:20:49 21° ESE 22:25:01 10° ENE visible
09 Aug - 00:00:39 10° SW 00:06:31 79° NW 00:12:23 10° NE visible
09 Aug - 01:49:10 10° W 01:53:47 23° NNW 01:58:25 10° NNE visible
09 Aug - 03:39:42 10° NNW 03:42:26 13° N 03:45:10 10° NNE visible
09 Aug - 05:27:13 10° NNW 05:31:16 19° NNE 05:35:20 10° ENE visible
09 Aug - 07:13:12 10° NNW 07:18:57 54° NE 07:24:48 10° SE daylight
09 Aug - 08:59:53 10° NW 09:05:06 34° WSW 09:10:23 10° S daylight
09 Aug - 22:24:51 10° S 22:29:52 30° ESE 22:34:51 10° NE visible
10 Aug - 00:10:07 10° SW 00:15:54 58° NW 00:21:40 10° NNE visible
10 Aug - 01:59:21 10° WNW 02:03:30 19° NNW 02:07:39 10° NNE visible
10 Aug - 03:49:36 10° NNW 03:52:19 13° N 03:55:02 10° NNE visible
10 Aug - 05:36:28 10° NNW 05:41:00 22° NNE 05:45:33 10° E daylight
10 Aug - 07:22:28 10° NNW 07:28:21 73° NE 07:34:20 10° SE daylight
10 Aug - 09:09:37 10° WNW 09:14:09 24° WSW 09:18:46 10° SSW daylight
10 Aug - 22:33:29 10° S 22:38:58 43° ESE 22:44:27 10° NE visible
